カタログに戻る

COSMOS 642

運用中軍事LEO
NORAD 7266·PAYLOAD·🇷🇺 Russia

打ち上げ Apr 23, 1974 から Plesetsk Cosmodrome

Loading…

次のパス (今後24時間)

TLE

最新Source: Space-Track

元期: Sep 14, 2026, 11:23 UTC

1 07266U 74024B   26257.47476097  .00000011  00000-0  14577-3 0  9993
2 07266  74.0184 148.9734 0103204  28.7038 143.7569 12.65842536421005

AllMySatでCOSMOS 642をリアルタイム追跡

Download on the App Store